Change the Weather History Date:

Tuesday, February 5, 2013

  Actual Average Record
Temperature  
Mean Temperature 48 °F -  
Max Temperature 64 °F 49 °F 66 °F (1999)
Min Temperature 33 °F 29 °F 10 °F (2011)
Degree Days  
Heating Degree Days 16    
Moisture  
Dew Point 40 °F    
Average Humidity 88    
Maximum Humidity 100    
Minimum Humidity 43    
Precipitation  
Precipitation 0.00 in - - ()
Sea Level Pressure  
Sea Level Pressure 30.01 in    
Wind  
Wind Speed 1 mph (South)    
Max Wind Speed 5 mph    
Max Gust Speed -    
Visibility 7 miles    
Events Fog    
Averages and records for this station are not official NWS values.
T = Trace of Precipitation, MM = Missing Value Source: NWS Daily Summary

Daily Weather History Graph

Daily Weather History Graph

Search for Another Location

Airport or City:

Trip Planner

Search our weather history database for the weather conditions in past years. The results will help you decide how hot, cold, wet, or windy it might be!

Date:

Astronomy

Feb. 05, 2013 Rise Set
Actual Time 7:17 AM CST 5:53 PM CST
Civil Twilight 6:51 AM CST 6:20 PM CST
Nautical Twilight 6:21 AM CST 6:50 PM CST
Astronomical Twilight 5:51 AM CST 7:20 PM CST
Moon 2:57 AM CST (2/5) 1:15 PM CST (2/5)
Length of Visible Light 11h 28m
Length of Day
10h 35m
Waning Crescent, 26% of the Moon is Illuminated
Feb 5
Waning Crescent
Feb 10
New
Feb 17
First Quarter
Feb 25
Full
Mar 4
Last Quarter

Hourly Weather History & Observations

Time (CST) Temp. Windchill Dew Point Humidity Pressure Visibility Wind Dir Wind Speed Gust Speed Precip Events Conditions
12:53 AM 37.9 °F - 33.1 °F 83% 29.96 in 10.0 mi Calm Calm - N/A   Clear
1:53 AM 37.9 °F 35.5 °F 34.0 °F 86% 29.96 in 10.0 mi North 3.5 mph - N/A   Clear
2:53 AM 35.1 °F - 32.0 °F 89% 29.94 in 10.0 mi Calm Calm - N/A   Clear
3:53 AM 36.0 °F 33.3 °F 33.1 °F 89% 29.94 in 10.0 mi WSW 3.5 mph - N/A   Clear
4:53 AM 36.0 °F - 33.1 °F 89% 29.96 in 10.0 mi Calm Calm - N/A   Clear
5:41 AM 33.8 °F - 30.2 °F 87% 29.97 in 10.0 mi Calm Calm - N/A   Scattered Clouds
5:50 AM 33.8 °F - 32.0 °F 93% 29.98 in 10.0 mi Calm Calm - N/A   Mostly Cloudy
5:53 AM 33.1 °F - 32.0 °F 96% 29.98 in 10.0 mi Calm Calm - N/A   Mostly Cloudy
6:28 AM 35.6 °F - 33.8 °F 93% 29.98 in 10.0 mi Calm Calm - N/A   Overcast
6:53 AM 36.0 °F - 34.0 °F 93% 29.99 in 5.0 mi Calm Calm - N/A   Overcast
6:57 AM 35.6 °F - 35.6 °F 100% 29.99 in 1.5 mi Calm Calm - N/A   Overcast
6:59 AM 35.6 °F - 35.6 °F 100% 29.99 in 0.8 mi Calm Calm - N/A   Mist
7:10 AM 35.6 °F - 35.6 °F 100% 30.00 in 0.2 mi Calm Calm - N/A Fog Fog
7:53 AM 37.9 °F 35.5 °F 37.9 °F 100% 30.01 in 0.2 mi South 3.5 mph - N/A Fog Fog
8:53 AM 39.9 °F 36.7 °F 39.9 °F 100% 30.03 in 0.2 mi South 4.6 mph - N/A Fog Fog
9:53 AM 42.1 °F 40.2 °F 42.1 °F 100% 30.05 in 0.2 mi South 3.5 mph - N/A Fog Fog
10:53 AM 44.1 °F - 44.1 °F 100% 30.07 in 0.2 mi Calm Calm - N/A Fog Fog
11:30 AM 44.6 °F 43.1 °F 44.6 °F 100% 30.06 in 0.5 mi SW 3.5 mph - N/A Fog Fog
11:53 AM 46.0 °F - 46.0 °F 100% 30.07 in 0.8 mi Calm Calm - N/A   Overcast
12:03 PM 46.4 °F - 46.4 °F 100% 30.06 in 1.2 mi Calm Calm - N/A   Overcast
12:10 PM 46.4 °F - 46.4 °F 100% 30.06 in 1.8 mi Calm Calm - N/A   Overcast
12:16 PM 46.4 °F - 46.4 °F 100% 30.06 in 3.0 mi Calm Calm - N/A   Overcast
12:53 PM 48.0 °F - 46.9 °F 96% 30.04 in 5.0 mi Variable 3.5 mph - N/A   Overcast
1:27 PM 51.8 °F - 48.2 °F 88% 30.02 in 9.0 mi Variable 4.6 mph - N/A   Partly Cloudy
1:53 PM 55.0 °F - 48.9 °F 80% 30.02 in 10.0 mi Calm Calm - N/A   Clear
2:53 PM 60.1 °F - 48.9 °F 67% 30.01 in 10.0 mi Calm Calm - N/A   Clear
3:53 PM 63.0 °F - 45.0 °F 52% 30.00 in 10.0 mi Calm Calm - N/A   Clear
4:53 PM 64.9 °F - 42.1 °F 43% 30.00 in 10.0 mi Calm Calm - N/A   Clear
5:53 PM 57.0 °F - 42.1 °F 57% 30.01 in 10.0 mi ENE 3.5 mph - N/A   Clear
6:53 PM 53.1 °F - 43.0 °F 69% 30.02 in 10.0 mi ESE 4.6 mph - N/A   Clear
7:53 PM 53.1 °F - 43.0 °F 69% 30.03 in 10.0 mi Calm Calm - N/A   Clear
8:53 PM 46.9 °F - 43.0 °F 86% 30.04 in 10.0 mi SSE 3.5 mph - N/A   Clear
9:53 PM 46.9 °F - 43.0 °F 86% 30.05 in 10.0 mi Calm Calm - N/A   Clear
10:53 PM 44.1 °F - 39.9 °F 85% 30.06 in 10.0 mi Calm Calm - N/A   Clear
11:53 PM 43.0 °F - 39.9 °F 89% 30.06 in 10.0 mi Calm Calm - N/A   Clear